Theta_e
302 298 293 295 298 296 294 290 291 292 298 295 294 295 298 300 299 300 303 303 304 305 309 311 313 322 324 325 327 327 327 327 325 322 321 321 320 320 318 320 322 322 323 323
298 293 296 297 299 296 294 291 289 293 296 295 294 294 296 297 299 300 303 301 302 303 305 309 311 318 322 325 327 327 328 329 326 326 324 324 323 322 322 321 320 321 321 321
291 292 299 297 295 295 294 292 290 290 293 295 293 291 293 297 298 300 301 302 302 302 305 306 308 315 321 323 325 327 328 328 328 328 326 322 321 319 319 321 320 319 320 320
294 297 296 295 294 296 290 297 294 293 291 285 292 283 289 293 296 298 299 300 301 302 303 304 307 311 319 322 325 327 328 328 329 329 326 323 322 320 322 322 323 322 320 319
290 292 294 294 294 297 292 297 294 292 290 287 287 285 288 292 292 295 297 300 301 301 302 304 305 309 316 322 323 325 327 328 329 328 327 325 323 324 324 323 321 322 322 320
292 295 295 294 297 298 298 294 293 291 289 284 289 286 287 291 292 295 298 299 300 300 301 303 305 307 309 317 321 323 324 326 327 327 327 326 324 324 323 323 322 322 322 322
290 289 293 296 293 296 297 292 284 282 282 281 287 286 290 293 294 295 297 298 297 299 299 301 302 305 307 310 316 320 321 323 327 326 326 326 326 325 324 324 324 323 322 322
283 281 290 295 293 291 293 292 282 273 276 280 286 284 289 296 300 301 301 298 298 298 299 300 302 303 303 305 308 315 318 321 324 326 326 327 327 327 326 326 326 324 324 324
282 282 290 294 294 294 290 289 291 282 276 278 281 287 292 295 295 294 296 296 296 296 298 299 300 300 301 302 303 308 313 317 320 323 325 326 326 326 326 327 327 326 326 326
285 280 288 291 296 295 292 294 286 284 272 270 279 280 285 287 291 293 293 293 295 296 297 298 299 299 300 301 301 303 307 311 315 320 323 324 326 326 327 327 326 327 327 326
286 283 282 289 289 289 291 288 289 287 283 277 275 280 289 291 292 292 293 294 295 296 296 297 297 298 299 298 298 299 301 303 304 308 315 319 322 323 324 326 326 327 327 327
288 283 279 284 291 292 293 289 289 283 279 282 281 281 292 292 294 291 291 295 294 294 295 296 296 296 296 296 297 298 299 300 302 303 305 308 312 317 320 323 324 326 326 327
289 280 270 277 284 288 288 289 291 288 283 282 278 282 292 292 290 290 291 289 291 291 291 293 293 293 294 294 296 296 297 298 300 301 302 303 304 306 310 315 320 323 324 325
294 283 281 277 280 286 285 288 290 289 279 282 283 284 287 289 288 291 289 290 289 291 293 293 292 292 293 294 293 294 296 297 298 299 299 299 301 302 304 307 311 315 319 321
289 275 280 281 282 284 284 286 287 287 288 283 285 285 290 291 289 289 288 289 290 291 290 289 289 291 290 292 293 295 295 296 296 297 297 299 300 301 301 303 305 308 311 315
288 277 282 276 282 282 278 282 284 286 287 286 284 284 290 288 289 287 288 289 288 287 287 289 289 289 290 290 291 292 293 294 294 294 294 296 297 297 298 299 300 303 306 309
286 280 275 275 280 279 275 280 281 282 284 285 282 289 293 286 287 285 285 285 285 286 286 286 286 287 288 288 289 290 290 291 291 292 293 293 294 294 295 295 296 297 300 303
285 282 280 269 272 273 281 283 286 284 284 285 285 285 285 283 282 280 281 281 282 284 283 283 284 285 285 286 287 288 287 287 288 288 289 290 290 291 292 293 293 295 297 298
289 284 276 271 263 274 278 281 281 281 279 275 275 276 276 277 282 277 278 279 279 280 281 281 282 282 282 283 284 283 283 284 285 286 287 288 289 289 290 291 292 294 293 295
288 288 281 268 268 266 276 279 282 284 275 273 274 273 273 277 278 276 275 276 276 278 278 278 278 279 279 280 280 279 279 281 283 285 285 286 287 288 288 290 291 292 292 292
282 282 277 268 268 270 278 278 280 274 274 273 272 271 271 271 271 272 274 273 275 275 275 276 275 275 276 277 277 277 278 279 282 282 282 283 284 285 286 287 289 290 290 291
280 278 277 270 267 271 271 276 277 273 272 272 270 269 268 269 270 271 271 271 272 271 272 273 272 273 274 275 275 274 274 277 278 278 279 279 282 283 285 286 287 288 289 289
278 281 278 278 274 269 270 269 271 272 271 269 268 268 268 267 268 268 268 269 270 270 270 271 270 270 271 272 272 271 273 274 274 275 276 278 278 279 283 284 284 286 288 288
278 277 275 273 268 268 268 269 269 269 268 268 268 267 267 266 268 268 268 268 269 269 269 269 268 268 268 270 271 271 271 272 271 271 271 274 276 279 280 282 284 285 286 288
272 276 274 269 270 268 267 267 267 267 268 267 267 267 266 266 267 267 267 267 267 267 267 267 267 267 267 268 268 269 270 271 270 270 272 273 276 277 279 282 284 285 287 289
266 267 275 274 271 269 267 267 266 266 265 266 265 265 266 266 265 265 265 265 265 265 265 265 265 265 266 267 266 267 268 268 267 268 271 272 272 272 275 277 280 286 287 288
Wind_Speed
8 12 25 22 12 8 10 5 10 4 5 4 7 13 14 11 8 11 14 10 9 10 10 8 11 14 14 11 13 16 14 12 9 7 8 8 11 8 6 9 11 12 11 12
8 25 9 9 8 7 9 10 8 3 6 8 11 19 12 10 13 9 14 9 10 7 8 9 8 10 13 17 17 15 18 16 12 10 8 8 7 8 8 7 9 12 12 12
12 3 10 14 13 16 16 21 6 5 2 4 4 11 7 8 7 7 7 8 7 11 15 12 8 11 14 15 18 18 19 18 15 16 8 5 2 2 5 8 10 12 13 13
8 11 19 12 16 16 21 9 8 7 5 7 3 9 5 5 11 8 6 9 11 9 11 11 11 9 13 16 15 17 17 17 16 16 12 15 13 13 12 10 9 10 13 14
11 13 10 15 21 15 13 12 11 5 6 2 5 3 7 4 8 9 8 11 13 10 9 14 12 12 13 15 15 15 15 15 16 16 17 13 15 12 8 8 8 11 10 14
10 3 10 8 7 16 8 6 3 3 5 11 19 7 11 11 7 6 7 10 8 9 7 8 9 7 8 9 11 11 13 15 14 15 18 19 19 16 10 11 10 9 9 9
12 6 3 6 8 7 9 13 5 9 9 10 7 8 19 10 6 7 11 11 2 8 9 8 9 8 5 5 7 8 12 15 16 16 16 21 21 18 19 16 12 13 10 11
14 17 11 7 8 10 22 16 7 9 7 6 7 8 11 11 14 18 13 5 4 6 5 6 8 8 7 8 7 6 7 12 11 12 15 15 17 12 13 14 12 11 12 13
15 13 6 5 4 10 6 17 10 5 3 3 4 6 11 8 8 3 7 9 7 5 4 6 6 6 8 8 7 7 6 6 6 9 11 13 13 15 15 18 14 12 14 12
5 6 6 23 4 6 10 9 8 3 4 4 4 3 8 1 6 7 6 6 6 4 5 7 7 8 6 6 7 7 5 5 5 6 7 10 12 13 15 15 15 16 15 15
1 4 1 12 14 14 8 7 5 5 5 6 3 8 8 8 7 10 6 5 6 5 4 5 5 5 6 7 7 7 8 8 7 4 6 7 9 10 11 13 15 17 16 15
7 5 4 10 10 8 12 10 7 7 7 3 2 7 6 9 11 8 7 6 3 2 1 3 5 6 7 7 8 8 8 7 8 8 7 7 8 9 11 12 15 15 16 16
13 4 4 4 2 4 14 9 9 5 3 10 7 11 7 7 7 5 9 1 2 3 3 4 5 5 6 7 8 8 8 7 7 8 8 11 11 12 12 12 14 14 14 15
19 5 10 14 6 8 10 14 12 13 6 6 12 9 3 4 4 5 2 3 2 3 5 4 4 5 5 6 7 8 8 7 7 8 7 7 9 10 11 12 13 14 14 14
11 7 4 4 3 4 6 12 14 17 20 12 15 20 19 8 2 5 0 3 7 7 8 8 8 7 8 10 9 9 8 8 8 11 11 12 11 12 12 12 12 13 13 14
7 4 5 3 1 1 1 7 12 15 9 12 4 19 6 5 7 1 2 5 4 9 10 12 13 14 13 13 14 14 11 13 11 12 11 11 12 14 14 13 13 13 13 14
13 7 4 9 2 5 9 11 8 6 6 10 13 24 15 2 6 8 12 13 11 11 12 14 15 14 14 16 16 15 15 13 13 12 13 14 13 15 14 13 13 13 14 14
10 7 3 3 3 15 5 0 12 13 6 6 9 8 10 7 13 13 13 12 13 14 15 14 13 14 15 15 16 16 16 16 15 15 14 12 12 15 15 15 14 14 13 13
9 7 4 6 4 5 5 5 8 10 7 4 5 8 7 8 6 6 14 13 12 12 12 13 12 15 15 15 15 17 18 18 17 17 17 14 13 17 17 18 18 16 13 14
9 10 6 4 6 10 7 1 4 6 7 3 5 7 9 10 4 1 15 14 13 13 14 15 16 14 14 15 16 17 17 16 15 15 18 18 16 17 18 18 20 17 14 15
8 7 10 4 3 9 5 6 7 10 4 6 4 5 8 5 3 11 14 14 13 15 18 17 16 16 17 18 19 19 18 17 18 20 21 20 18 18 19 20 17 17 17 16
9 9 6 4 3 11 12 4 3 4 8 6 5 5 5 6 7 9 11 15 16 17 18 16 16 16 16 17 18 20 21 20 20 22 23 22 20 16 16 19 20 17 17 17
3 5 7 2 2 6 13 13 7 7 7 3 3 6 7 9 9 10 9 11 12 14 14 14 15 18 16 16 15 21 19 21 22 23 23 21 23 21 19 17 20 17 16 15
3 4 6 6 6 8 9 9 10 8 7 6 7 7 8 9 11 12 12 12 13 14 15 14 16 17 17 15 17 19 22 21 22 24 24 21 23 22 20 16 15 15 15 15
4 5 9 7 10 10 8 8 6 5 4 3 5 6 8 9 10 11 12 12 12 14 14 15 16 17 19 18 18 18 19 20 22 22 21 21 18 19 19 16 14 15 20 18
4 0 3 4 11 4 7 8 6 5 3 4 6 7 7 8 11 12 13 13 14 15 14 13 15 16 18 18 18 18 17 19 22 21 18 16 18 18 17 17 19 23 32 35
Wind_Direction
183 189 211 201 207 214 198 225 216 207 244 252 244 259 262 263 246 251 254 249 257 254 260 249 227 211 206 197 197 199 192 196 191 195 201 210 215 215 208 211 209 203 209 206
168 218 188 171 182 192 210 221 223 254 230 195 257 264 260 249 255 222 238 243 245 260 269 261 242 212 194 195 198 197 201 197 196 205 211 217 216 227 225 215 213 209 206 206
195 222 165 173 190 203 220 223 167 191 304 263 284 280 240 253 245 235 243 249 254 242 259 261 243 210 204 199 200 200 205 201 198 207 204 206 217 218 212 218 218 215 209 206
233 220 191 184 203 195 222 191 178 193 180 244 142 278 259 250 264 261 253 268 268 260 255 256 249 221 207 210 208 209 208 205 204 196 201 207 216 224 230 235 234 223 211 211
207 171 184 189 211 170 226 176 199 174 209 146 250 271 282 305 270 274 275 262 267 264 260 259 246 229 216 209 205 209 211 208 204 200 205 202 218 231 235 232 235 231 228 222
226 191 172 207 195 194 147 104 105 139 165 230 236 190 257 250 214 232 243 256 274 271 289 287 275 245 229 216 207 209 206 213 207 201 205 209 215 220 221 223 224 222 224 219
214 224 215 164 160 166 186 153 183 215 222 240 168 181 245 249 222 226 235 258 346 320 329 338 7 4 330 289 257 214 201 212 207 205 207 214 219 218 224 224 220 216 217 219
195 208 195 187 188 188 199 192 174 192 197 217 139 211 245 238 239 254 253 269 52 70 28 43 35 39 31 19 331 257 226 233 222 220 220 221 229 228 229 234 232 227 227 226
187 218 186 183 177 154 186 208 189 96 15 85 205 284 307 247 269 108 101 103 123 88 49 56 43 24 13 16 17 348 285 263 252 231 234 230 227 229 234 236 233 231 232 236
199 183 196 205 207 197 178 160 198 187 163 229 224 247 236 283 151 148 138 131 110 82 49 40 28 17 7 1 353 12 357 314 297 274 256 250 246 239 240 243 238 236 238 237
207 117 274 152 199 184 160 190 185 154 175 185 192 240 215 198 175 160 161 123 103 70 33 6 5 358 350 351 1 354 355 347 336 301 273 265 262 260 250 247 244 243 240 235
199 137 166 195 219 189 210 191 170 187 206 209 121 267 221 218 154 142 132 128 152 164 269 323 322 331 345 338 346 346 348 347 331 328 327 308 295 285 268 263 258 252 247 242
188 203 80 13 24 273 211 211 188 106 68 200 183 246 158 94 113 89 129 111 260 268 281 282 296 323 325 332 344 348 347 344 328 333 334 333 327 320 300 284 272 262 254 249
167 173 192 201 201 139 191 195 192 192 201 183 218 263 251 154 168 145 182 283 333 346 336 312 338 353 352 351 352 352 341 343 340 343 335 328 323 320 314 302 289 282 269 261
177 169 135 80 97 152 191 199 194 206 219 195 237 240 250 227 298 141 251 358 347 353 348 346 8 13 18 16 2 350 347 350 349 341 340 331 320 317 314 306 298 292 288 278
199 227 124 182 215 169 227 220 203 219 216 245 283 264 223 103 132 156 231 291 352 15 32 30 24 15 7 1 349 340 342 339 336 333 331 323 317 317 315 311 307 303 292 284
179 124 85 220 134 67 280 203 188 192 191 207 230 245 273 135 136 27 42 46 30 18 18 12 5 356 353 346 338 334 333 330 325 323 323 319 313 310 309 305 304 299 293 290
161 130 97 178 68 227 280 220 197 202 164 231 279 335 47 35 90 69 40 30 15 6 357 354 349 345 340 332 328 326 330 328 323 319 313 312 310 308 310 304 299 294 292 285
161 128 121 141 190 295 303 218 160 166 213 26 312 352 360 335 187 79 31 18 354 342 341 334 339 330 325 326 327 323 325 320 317 313 312 315 312 306 304 304 300 295 291 287
152 154 157 128 161 212 224 164 309 99 238 67 36 23 356 336 155 129 356 351 342 341 333 332 329 325 322 323 322 316 316 311 306 309 310 308 307 300 298 297 296 294 285 281
167 171 192 155 207 283 285 318 317 150 197 106 59 45 19 48 42 316 331 333 336 329 331 331 331 326 327 327 323 317 315 312 315 312 307 304 301 298 295 293 288 290 289 284
167 157 172 117 122 257 6 300 193 88 83 80 76 30 351 337 331 333 327 325 326 329 328 330 325 324 325 323 320 315 312 314 313 307 303 301 297 294 293 290 290 286 283 279
191 186 159 160 148 71 42 80 73 59 95 76 4 355 345 335 340 332 329 324 324 324 325 326 323 319 322 320 315 308 310 312 308 303 298 303 303 292 286 291 288 288 280 272
88 342 87 139 145 119 81 75 66 50 48 13 3 342 342 336 338 342 336 335 332 333 329 328 321 314 313 317 317 311 313 313 307 301 297 295 296 296 293 284 280 278 275 272
14 344 117 90 113 115 101 96 68 77 60 17 349 342 342 337 340 342 329 328 330 328 330 329 321 317 315 316 313 312 310 311 308 302 297 294 288 293 292 284 283 278 275 272
2 264 190 152 134 82 105 108 64 81 44 20 350 338 345 348 343 341 336 333 330 327 323 318 315 312 312 316 317 317 318 314 309 304 305 308 302 293 287 286 286 267 273 277